Погода Усановы

Погода Усановы : погода сейчас, прогноз погоды и архив. Всё, что Вы хотите узнать о погоде Усановы!

Поиск расширенной информации на нашем сайте:

Другие новости

Новости СМИ2

Главная страница сайта

Новости сайта

03.07.2017

Напоминаем, что на нашем специализированном сайте Метеоцентр.Азия вы можете получить высокодетализированные автоматические прогнозы погоды по пунктам России, СНГ и мира в авиационном формате (включающие направление и скорость ветра, видимость, явления погоды, количество и форму облачности, нижнюю и верхнюю границу облачности).

Рекомендуем: Генераторы бензиновые купить генераторы.

Погода Усановы - сегодня

Время (UTC), дата Ветер
(°,м/с) 
Видим.   Явления Облачность Т
(°С)
Тd
(°С)
f(%) Тe
(°С)
Pmin
(гПа)
dP
(гПа)
Po
(мм)
O2
(г/м3)
Тmin Tmax R s Состояние
почвы
09 20.07.17 170 (Ю) 10 км    8/8 300 м кучево-дожд. 
[Cb cap]
+25.4 +10.7 40 +27  1012.7  -1  754  276           
12 20.07.17 тихо ()   10 км  {гроза, ливн. осадки}  8/5 300 м кучево-дожд., верхняя 
[Cb cap|Ci fib]
+22.4 +18.5 79 +38  1012.3  -0.4  754  276           
15 20.07.17 тихо ()   10 км  {гроза}  8/3 600 м верхняя 
[Sc|Ci fib]
+18.6 +17.9 96 +33  1013  0.6  754  280    +26.6     
18 20.07.17 тихо ()   10 км  {гроза}  3/3 600 м 
[Sc]
+13.8 +13.7 99 +20  1013.5  0.4  755  287           
21 20.07.17 тихо ()   10 км    3/3 600 м 
[Sc]
+11.5 +11.4 99 +14  1013.5  -0.1  755  290           
00 21.07.17 тихо ()   10 км    1/1 600 м 
[Sc]
+11 +10.9 99 +13  1013.9  0.4  755  290           
03 21.07.17 030 (СВ) 10 км    4/4 600 м 
[Sc]
+20 +15.2 74 +29  1014.7  756  281  +10         
06 21.07.17 тихо ()   10 км    6/1 600 м средняя, верхняя 
[Cu Sc|Ac trans|Ci fib]
+24.5 +15.2 56 +33  1014.5  -0.2  756  276           
09 21.07.17 360 (С) 10 км  гроза, ливневой дождь  10/10 300 м кучево-дожд. 
[Cb cap]
+17.5 +15.8 90 +29  1014.1  -0.5  755  283           
12 21.07.17 250 (З) 10 км  {гроза}  4/3 300 м кучево-дожд., верхняя 
[Cb cap|Ci fib]
+25.2 +15.2 54 +34  1013.3  -0.6  755  275           
15 21.07.17 020 (С) 10 км  гроза, ливневой дождь  6/6 300 м кучево-дожд. 
[Cb cap]
+19.1 +16 82 +31  1014.1  0.7  755  281    +27.4  0.7     
18 21.07.17 тихо ()   10 км  {гроза, ливн. осадки}  ясно 
+14.7 +14.5 99 +22  1014.6  0.3  755  286           
21 21.07.17 тихо ()   10 км    ясно 
+11.3 +11.1 99 +14  1014.6  -0.1  755  290           
00 22.07.17 тихо ()   10 км    ясно 
+11 +10.9 99 +13  1014.9  0.3  756  291           
03 22.07.17 320 (СЗ) 10 км    3/0 средняя 
[Ac trans]
+22.2 +16.2 69 +33  1014.5  756  278  +9.9    0.0     
06 22.07.17 030 (СВ) 10 км    3/0 верхняя 
[Ci fib]
+27.7 +14.1 43 +35  1013.7  -0.6  755  273           
09 22.07.17 050 (СВ) 10 км  гроза без осадков  8/8 300 м кучево-дожд. 
[Cb cap]
+25.8 +17.2 59 +38  1012.6  -1.2  754  274           
12 22.07.17 360 (С) 10 км  слаб. ливневой дождь{гроза}  9/9 300 м кучево-дожд. 
[Cb cap]
+19.2 +17.7 91 +35  1013.8  755  280           
15 22.07.17 060 (СВ) 10 км  {ливн. осадки}  9/9 300 м кучево-дожд. 
[Cb cap]
+18.1 +16.5 90 +31  1013.4  -0.4  755  282    +29.2     
18 22.07.17 тихо ()   10 км  {ливн. осадки}  3/3 300 м кучево-дожд. 
[Cb cap]
+13.6 +13.4 99 +19  1013.1  -0.4  754  287           
21 22.07.17 тихо ()   10 км    1/1 600 м 
[Sc]
+11.2 +11.1 99 +14  1012.4  -0.8  754  290           
00 23.07.17 тихо ()   10 км    4/0 верхняя 
[Ci fib]
+12.5 +12.5 100 +17  1012.1  -0.2  754  288           
03 23.07.17 тихо ()   10 км    3/3 600 м 
[Sc]
+17.6 +15.5 87 +27  1011.6  -0.4  753  282  +11.1         
06 23.07.17 340 (С) 10 км    3/3 600 м 
[Sc]
+24.2 +18.2 69 +39  1010.3  -1.1  752  274           
09 23.07.17 070 (В) 10 км  гроза, ливневой дождь  8/8 300 м кучево-дожд. 
[Cb cap]
+24.3 +17.1 64 +37  1008.9  -1.3  751  274           
Время (UTC), дата Ветер
(°,м/с) 
Видим.   Явления Облачность Т
(°С)
Тd
(°С)
f(%) Тe
(°С)
Pmin
(гПа)
dP
(гПа)
Po
(мм)
O2
(г/м3)
Тmin Tmax R s Состояние
почвы

Для получения пояснительной информации подведите курсор к названию столбца.

ПОГОДА Усановы - архив

Всё, что Вы хотите узнать о погоде Усановы - удобно и подробно!

Выберите нужную дату (начиная с 1 января 2015* года) и нажмите кнопку "Найти".
Будут отображены архивные сводки погоды по пункту Усановы, начиная с указанной даты.


Отображать данные в формате CSV (для использования в таблицах Excel)


Внимание! Наш архив погоды предназначен исключительно для личного некоммерческого использования в познавательных целях. Если Вам необходимы официальные справки о состоянии погоды (для производственных, юридических, коммерческих и т.п. целей), обращайтесь в органы Росгидромета.

*Примечание: данная дата относится к архиву по метеостанциям СССР (Россия, СНГ, Балтия).
Архив по метеостанциям Зарубежной Европы и Азии (кроме Китая) хранится 10 дней, по другим регионам земного шара (Китай, Африка, Америка, Австралия, Океания) - 1 день.

Усановы - район местоположения метеостанции


Название, широта, долгота, высота метеостанции:
Усановы 59.5°ш. 73.4°д. 82 м над ур. моря [Российская Федерация]

Дополнительная информация

В oтличие oт бoльшинства пoгoдных сайтoв мы публикуем пoдрoбную метеoинфoрмацию в детальнoм прoфессиoнальнoм фoрмате.

Характеристики температуры и влажнoсти вoздуха измеряются на высoте 2 м в тени вдали oт зданий и деревьев.
Скoрoсть ветра измеряется на высoте 10 м (на урoвне рoста челoвека скoрoсть ветра ниже в 1.5-2 раза). Если метеoстанция нахoдится в гoрoде или в лесу, тo скoрoсть ветра занижена на 2-4 м/с пo сравнению с oткрытым местoм. Скoрoсть ветра над акватoриями крупных рек и oзёр, а также на вершинах хoлмoв на 2-5 м/с выше, чем в oбычных услoвиях.
Атмoсфернoе давление в разных тoчках местнoсти мoжет значительнo oтличаться oт давления на метеoстанции, в зависимoсти oт услoвий рельефа (при пoдъёме на 10 м давление пoнижается примернo на 1 мм рт.ст.).